GW6653 Weather Reports


time (UTC)temp
C
wind
direction
speed
KPH
gust
KPH
rain 1hr
cm
rain 24hr
cm
rain mn
cm
humidity
%
barometer
mb
20260510192729 28 322 1.6 3.2 0.00 0.00 0.00 36 1007.1
20260510192229 28 312 3.2 4.8 0.00 0.00 0.00 33 1007.1
20260510191731 28 342 0.0 4.8 0.00 0.00 0.00 33 1007.1
20260510191229 28 298 4.8 4.8 0.00 0.00 0.00 35 1007.1
20260510190731 28 146 4.8 4.8 0.00 0.00 0.00 35 1007.1
20260510190230 28 343 1.6 8.0 0.00 0.00 0.00 32 1007.1
20260510185729 29 172 3.2 3.2 0.00 0.00 0.00 33 1007.1
20260510185229 28 324 0.0 3.2 0.00 0.00 0.00 36 1007.5
20260510184730 28 273 3.2 8.0 0.00 0.00 0.00 37 1007.5
20260510184230 29 281 0.0 6.4 0.00 0.00 0.00 35 1007.5
20260510183730 29 290 0.0 4.8 0.00 0.00 0.00 35 1007.5
20260510183231 28 286 1.6 3.2 0.00 0.00 0.00 34 1007.5
20260510182731 29 199 1.6 3.2 0.00 0.00 0.00 34 1007.5
20260510182229 29 278 0.0 4.8 0.00 0.00 0.00 37 1007.5
20260510181730 29 50 1.6 6.4 0.00 0.00 0.00 31 1007.5
20260510181229 29 344 0.0 1.6 0.00 0.00 0.00 34 1007.5
20260510180730 29 296 1.6 1.6 0.00 0.00 0.00 35 1007.5
20260510180229 29 232 3.2 4.8 0.00 0.00 0.00 36 1007.5
20260510175730 29 282 1.6 4.8 0.00 0.00 0.00 35 1007.8
20260510175229 28 291 0.0 6.4 0.00 0.00 0.00 35 1007.8
20260510174730 29 159 3.2 4.8 0.00 0.00 0.00 34 1007.8
20260510174230 29 302 0.0 4.8 0.00 0.00 0.00 33 1007.8
20260510173730 29 271 1.6 3.2 0.00 0.00 0.00 35 1007.8
20260510173230 30 352 0.0 4.8 0.00 0.00 0.00 36 1007.8
20260510172729 29 127 3.2 3.2 0.00 0.00 0.00 35 1007.8
20260510172230 29 205 4.8 4.8 0.00 0.00 0.00 36 1007.8
20260510171731 30 23 1.6 4.8 0.00 0.00 0.00 36 1007.8
20260510171230 28 313 1.6 4.8 0.00 0.00 0.00 35 1007.8
20260510170731 28 318 3.2 3.2 0.00 0.00 0.00 36 1007.8
20260510170230 29 250 1.6 3.2 0.00 0.00 0.00 41 1008.1
20260510165731 28 286 1.6 6.4 0.00 0.00 0.00 36 1008.1
20260510165229 28 215 3.2 4.8 0.00 0.00 0.00 37 1008.1
20260510164729 29 154 4.8 6.4 0.00 0.00 0.00 42 1008.1
20260510164230 28 284 0.0 0.0 0.00 0.00 0.00 37 1008.1
20260510163730 29 169 3.2 6.4 0.00 0.00 0.00 38 1008.1
20260510163230 30 307 0.0 1.6 0.00 0.00 0.00 35 1008.1
20260510162732 28 300 0.0 3.2 0.00 0.00 0.00 45 1008.1
20260510162229 28 314 0.0 4.8 0.00 0.00 0.00 35 1008.5
20260510161730 28 311 4.8 4.8 0.00 0.00 0.00 39 1008.5
20260510161232 28 346 1.6 4.8 0.00 0.00 0.00 39 1008.5
20260510160731 28 289 1.6 3.2 0.00 0.00 0.00 40 1008.5
20260510160235 27 207 4.8 4.8 0.00 0.00 0.00 39 1008.5
20260510155729 28 319 0.0 4.8 0.00 0.00 0.00 50 1008.5
20260510155230 28 198 1.6 4.8 0.00 0.00 0.00 38 1008.5
20260510154729 27 292 0.0 1.6 0.00 0.00 0.00 42 1008.8
20260510154229 27 331 0.0 3.2 0.00 0.00 0.00 42 1008.8
20260510153730 27 328 1.6 4.8 0.00 0.00 0.00 43 1008.8
20260510153232 27 319 0.0 0.0 0.00 0.00 0.00 45 1008.8
20260510152731 27 312 0.0 0.0 0.00 0.00 0.00 42 1008.8
20260510152231 27 322 1.6 3.2 0.00 0.00 0.00 44 1008.8
20260510151729 27 323 0.0 4.8 0.00 0.00 0.00 48 1008.8
20260510151229 27 270 0.0 3.2 0.00 0.00 0.00 45 1008.8
20260510150730 27 316 3.2 3.2 0.00 0.00 0.00 45 1008.8
20260510150231 27 156 1.6 4.8 0.00 0.00 0.00 42 1009.1
20260510145730 26 293 1.6 4.8 0.00 0.00 0.00 45 1009.1
20260510145230 27 279 1.6 1.6 0.00 0.00 0.00 44 1008.8
20260510144729 26 194 4.8 6.4 0.00 0.00 0.00 45 1008.8
20260510144229 26 281 0.0 4.8 0.00 0.00 0.00 46 1008.8
20260510143242 26 307 1.6 3.2 0.00 0.00 0.00 46 1008.8
20260510142729 25 320 0.0 3.2 0.00 0.00 0.00 52 1008.8
20260510142229 25 104 0.0 0.0 0.00 0.00 0.00 52 1008.5
20260510141729 25 318 0.0 0.0 0.00 0.00 0.00 51 1008.8
20260510141229 24 327 0.0 0.0 0.00 0.00 0.00 51 1008.5
20260510140730 24 322 1.6 3.2 0.00 0.00 0.00 54 1008.5
20260510140230 23 335 0.0 3.2 0.00 0.00 0.00 53 1008.5
20260510135729 24 301 0.0 3.2 0.00 0.00 0.00 54 1008.8
20260510135229 23 325 0.0 1.6 0.00 0.00 0.00 59 1008.5
20260510134732 23 289 0.0 0.0 0.00 0.00 0.00 59 1008.5
20260510134230 22 327 1.6 3.2 0.00 0.00 0.00 58 1008.5
20260510133731 23 323 0.0 3.2 0.00 0.00 0.00 57 1008.5
20260510133231 22 319 0.0 0.0 0.00 0.00 0.00 64 1008.5
20260510132729 22 339 0.0 0.0 0.00 0.00 0.00 62 1008.5
20260510132230 22 328 0.0 0.0 0.00 0.00 0.00 61 1008.8
20260510131730 22 311 0.0 0.0 0.00 0.00 0.00 61 1008.8
20260510131230 21 343 0.0 0.0 0.00 0.00 0.00 67 1008.8
20260510130731 21 325 0.0 0.0 0.00 0.00 0.00 66 1008.8
20260510130231 20 309 0.0 0.0 0.00 0.00 0.00 67 1008.5
20260510125730 20 324 0.0 0.0 0.00 0.00 0.00 69 1008.5
20260510125229 20 324 0.0 0.0 0.00 0.00 0.00 71 1008.5
20260510124731 19 305 0.0 0.0 0.00 0.00 0.00 71 1008.5
20260510124229 18 312 0.0 0.0 0.00 0.00 0.00 76 1008.5
20260510123730 18 317 0.0 0.0 0.00 0.00 0.00 79 1008.1
20260510123230 17 293 0.0 0.0 0.00 0.00 0.00 82 1008.5
20260510122731 16 308 0.0 0.0 0.00 0.00 0.00 95 1008.5
20260510122230 16 304 0.0 0.0 0.00 0.00 0.00 96 1008.1
20260510121730 15 312 0.0 0.0 0.00 0.00 0.00 96 1008.1
20260510121232 15 318 0.0 0.0 0.00 0.00 0.00 96 1008.1
20260510120732 15 305 0.0 0.0 0.00 0.00 0.00 96 1008.1
20260510120230 15 300 0.0 0.0 0.00 0.00 0.00 96 1008.1
20260510115729 14 305 0.0 0.0 0.00 0.00 0.00 96 1007.8
20260510115229 13 309 0.0 0.0 0.00 0.00 0.00 96 1007.8
20260510114729 13 317 0.0 0.0 0.00 0.00 0.00 96 1007.8
20260510114229 13 319 0.0 0.0 0.00 0.00 0.00 96 1007.8
20260510113731 13 304 0.0 0.0 0.00 0.00 0.00 96 1007.8
20260510113231 12 285 0.0 0.0 0.00 0.00 0.00 96 1007.5
20260510112730 12 312 0.0 0.0 0.00 0.00 0.00 95 1007.5
20260510112229 12 309 0.0 0.0 0.00 0.00 0.00 95 1007.5
20260510111730 12 310 0.0 0.0 0.00 0.00 0.00 95 1007.1
20260510111229 12 317 0.0 0.0 0.00 0.00 0.00 95 1007.1
20260510110730 12 311 0.0 0.0 0.00 0.00 0.00 95 1007.1
20260510110230 12 309 0.0 0.0 0.00 0.00 0.00 95 1007.1
20260510105729 12 306 0.0 0.0 0.00 0.00 0.00 95 1007.1
20260510105230 11 310 0.0 0.0 0.00 0.00 0.00 95 1007.1
20260510104730 11 313 0.0 0.0 0.00 0.00 0.00 95 1007.1
20260510104230 11 304 0.0 0.0 0.00 0.00 0.00 95 1007.1
20260510103729 11 309 0.0 0.0 0.00 0.00 0.00 94 1007.1
20260510103229 11 304 0.0 0.0 0.00 0.00 0.00 94 1006.8
20260510102729 11 304 0.0 0.0 0.00 0.00 0.00 94 1006.8
20260510102230 12 304 0.0 0.0 0.00 0.00 0.00 94 1006.8
20260510101729 12 296 0.0 0.0 0.00 0.00 0.00 94 1006.8
20260510101230 12 304 0.0 0.0 0.00 0.00 0.00 94 1006.8
20260510100730 12 304 0.0 0.0 0.00 0.00 0.00 94 1006.8
20260510100230 12 302 0.0 0.0 0.00 0.00 0.00 94 1006.4
20260510095729 12 296 0.0 0.0 0.00 0.00 0.00 94 1006.1
20260510095230 12 300 0.0 0.0 0.00 0.00 0.00 94 1006.1
20260510094732 12 308 0.0 0.0 0.00 0.00 0.00 94 1006.1
20260510094229 12 297 0.0 0.0 0.00 0.00 0.00 94 1006.1
20260510093730 12 300 0.0 0.0 0.00 0.00 0.00 93 1006.1
20260510093231 12 310 0.0 0.0 0.00 0.00 0.00 93 1005.8
20260510092729 12 311 0.0 0.0 0.00 0.00 0.00 93 1005.8
20260510092232 12 310 0.0 0.0 0.00 0.00 0.00 93 1006.1
20260510091730 12 306 0.0 0.0 0.00 0.00 0.00 93 1006.1
20260510091229 12 320 0.0 0.0 0.00 0.00 0.00 93 1006.1
20260510090729 13 300 0.0 0.0 0.00 0.00 0.00 93 1006.1
20260510090229 13 306 0.0 0.0 0.00 0.00 0.00 93 1005.8
20260510085729 13 302 0.0 0.0 0.00 0.00 0.00 93 1005.8
20260510085230 13 303 0.0 0.0 0.00 0.00 0.00 93 1005.8
20260510084729 13 300 0.0 0.0 0.00 0.00 0.00 93 1005.4
20260510084230 13 304 0.0 0.0 0.00 0.00 0.00 93 1005.4
20260510083729 13 311 0.0 0.0 0.00 0.00 0.00 93 1005.4
20260510083229 13 314 0.0 0.0 0.00 0.00 0.00 93 1005.4
20260510082729 13 297 0.0 0.0 0.00 0.00 0.00 92 1005.8
20260510082230 13 313 0.0 0.0 0.00 0.00 0.00 92 1005.8
20260510081730 13 306 0.0 0.0 0.00 0.00 0.00 92 1005.8
20260510081230 13 302 0.0 0.0 0.00 0.00 0.00 92 1005.8
20260510080730 13 312 0.0 0.0 0.00 0.00 0.00 92 1005.4
20260510080229 13 307 0.0 0.0 0.00 0.00 0.00 92 1005.4
20260510075729 13 305 0.0 0.0 0.00 0.00 0.00 92 1005.4
20260510075229 14 304 0.0 0.0 0.00 0.00 0.00 92 1005.4
20260510074737 14 300 0.0 0.0 0.00 0.00 0.00 92 1005.4
20260510074230 14 300 0.0 0.0 0.00 0.00 0.00 91 1005.4
20260510073730 14 305 0.0 0.0 0.00 0.00 0.00 91 1005.4
20260510073229 14 308 0.0 0.0 0.00 0.00 0.00 91 1005.1
20260510072729 14 306 0.0 0.0 0.00 0.00 0.00 91 1005.1
20260510072229 15 309 0.0 0.0 0.00 0.00 0.00 91 1005.1
20260510071729 15 315 0.0 0.0 0.00 0.00 0.00 91 1005.1
20260510071230 15 313 0.0 0.0 0.00 0.00 0.00 90 1005.4
20260510070731 15 316 0.0 0.0 0.00 0.00 0.00 90 1005.4
20260510070231 15 312 0.0 0.0 0.00 0.00 0.00 90 1005.1
20260510065730 15 299 0.0 0.0 0.00 0.00 0.00 90 1005.1
20260510065231 15 296 0.0 0.0 0.00 0.00 0.00 90 1005.4
20260510064729 15 308 0.0 0.0 0.00 0.00 0.00 89 1005.4
20260510064229 15 309 0.0 0.0 0.00 0.00 0.00 89 1005.1
20260510063729 15 319 0.0 0.0 0.00 0.00 0.00 89 1005.1
20260510063231 15 312 0.0 0.0 0.00 0.00 0.00 89 1005.4
20260510062730 15 313 0.0 0.0 0.00 0.00 0.00 88 1005.4
20260510062230 15 311 0.0 0.0 0.00 0.00 0.00 88 1005.4
20260510061730 16 312 0.0 0.0 0.00 0.00 0.00 88 1005.4
20260510061230 16 307 0.0 0.0 0.00 0.00 0.00 88 1005.4
20260510060729 16 315 0.0 0.0 0.00 0.00 0.00 88 1005.4
20260510060230 16 297 0.0 0.0 0.00 0.00 0.00 88 1005.4
20260510055730 16 317 0.0 0.0 0.00 0.00 0.00 88 1005.4
20260510055229 16 319 0.0 0.0 0.00 0.00 0.00 88 1005.4
20260510054730 16 327 0.0 0.0 0.00 0.00 0.00 88 1005.4
20260510054229 16 314 0.0 0.0 0.00 0.00 0.00 88 1005.4
20260510053729 16 313 0.0 1.6 0.00 0.00 0.00 87 1005.4
20260510053229 16 314 0.0 0.0 0.00 0.00 0.00 87 1005.4
20260510052729 16 319 0.0 0.0 0.00 0.00 0.00 87 1005.4
20260510052230 16 269 0.0 0.0 0.00 0.00 0.00 87 1005.4
20260510051731 16 309 0.0 0.0 0.00 0.00 0.00 87 1005.4
20260510051230 16 311 0.0 0.0 0.00 0.00 0.00 87 1005.4
20260510050730 16 285 0.0 0.0 0.00 0.00 0.00 87 1005.4
20260510050232 16 300 0.0 0.0 0.00 0.00 0.00 87 1005.4
20260510045730 16 297 0.0 0.0 0.00 0.00 0.00 87 1005.4
20260510045229 16 284 0.0 0.0 0.00 0.00 0.00 86 1005.4
20260510044731 16 310 0.0 0.0 0.00 0.00 0.00 86 1005.4
20260510044230 16 312 0.0 0.0 0.00 0.00 0.00 85 1005.4
20260510043730 16 288 0.0 0.0 0.00 0.00 0.00 85 1005.4
20260510043231 16 316 0.0 0.0 0.00 0.00 0.00 84 1005.4
20260510042729 16 315 0.0 0.0 0.00 0.00 0.00 84 1005.4
20260510042231 16 307 0.0 0.0 0.00 0.00 0.00 83 1005.4
20260510041730 16 306 0.0 0.0 0.00 0.00 0.00 83 1005.4
20260510041229 16 304 0.0 0.0 0.00 0.00 0.00 83 1005.4
20260510040733 16 305 0.0 0.0 0.00 0.00 0.00 83 1005.4
20260510040229 16 317 0.0 0.0 0.00 0.00 0.00 83 1005.4
20260510035729 16 306 0.0 0.0 0.00 0.00 0.00 82 1005.1
20260510035231 16 304 0.0 0.0 0.00 0.00 0.00 82 1005.1
20260510034729 16 303 0.0 0.0 0.00 0.00 0.00 82 1005.1
20260510034230 16 305 0.0 0.0 0.00 0.00 0.00 82 1005.1
20260510033731 16 299 0.0 0.0 0.00 0.00 0.00 81 1005.1
20260510033229 16 303 0.0 0.0 0.00 0.00 0.00 81 1005.1
20260510032729 16 302 0.0 0.0 0.00 0.00 0.00 81 1005.1
20260510032229 16 299 0.0 0.0 0.00 0.00 0.00 81 1005.1
20260510031732 16 320 0.0 0.0 0.00 0.00 0.00 80 1005.1
20260510031229 16 300 0.0 0.0 0.00 0.00 0.00 80 1005.1
20260510030731 16 318 0.0 0.0 0.00 0.00 0.00 80 1005.1
20260510030229 16 322 0.0 0.0 0.00 0.00 0.00 79 1005.1
20260510025730 16 307 0.0 0.0 0.00 0.00 0.00 79 1005.1
20260510025230 16 310 0.0 0.0 0.00 0.00 0.00 78 1005.1
20260510024729 16 312 0.0 0.0 0.00 0.00 0.00 78 1005.1
20260510024229 17 307 0.0 0.0 0.00 0.00 0.00 78 1005.1
20260510023729 17 308 0.0 0.0 0.00 0.00 0.00 78 1004.7
20260510023231 17 301 0.0 0.0 0.00 0.00 0.00 78 1005.1
20260510022731 17 304 0.0 0.0 0.00 0.00 0.00 77 1004.7
20260510022230 17 303 0.0 0.0 0.00 0.00 0.00 77 1004.7
20260510021729 17 302 0.0 0.0 0.00 0.00 0.00 76 1004.7
20260510021230 17 303 0.0 0.0 0.00 0.00 0.00 76 1004.7
20260510020730 17 310 0.0 0.0 0.00 0.00 0.00 76 1004.4
20260510020229 17 307 0.0 0.0 0.00 0.00 0.00 75 1004.4
20260510015729 17 307 0.0 0.0 0.00 0.00 0.00 75 1004.4
20260510015229 17 288 0.0 0.0 0.00 0.00 0.00 74 1004.4
20260510014733 17 303 0.0 0.0 0.00 0.00 0.00 74 1004.1
20260510014229 17 303 0.0 0.0 0.00 0.00 0.00 73 1004.1
20260510013729 18 301 0.0 0.0 0.00 0.00 0.00 73 1004.1
20260510013229 18 304 0.0 0.0 0.00 0.00 0.00 73 1004.1
20260510012729 18 312 0.0 0.0 0.00 0.00 0.00 73 1004.1
20260510012229 18 309 0.0 0.0 0.00 0.00 0.00 72 1004.1
20260510011731 18 307 0.0 0.0 0.00 0.00 0.00 72 1004.1
20260510011229 18 302 0.0 0.0 0.00 0.00 0.00 72 1004.1
20260510010730 18 302 0.0 0.0 0.00 0.00 0.00 71 1003.7
20260510010229 18 301 0.0 0.0 0.00 0.00 0.00 71 1003.7
20260510005731 18 303 0.0 0.0 0.00 0.00 0.00 71 1003.7
20260510005229 18 303 0.0 0.0 0.00 0.00 0.00 71 1003.7
20260510004731 19 307 0.0 0.0 0.00 0.00 0.00 70 1003.7
20260510004229 19 304 0.0 0.0 0.00 0.00 0.00 69 1003.7
20260510003729 19 303 0.0 0.0 0.00 0.00 0.00 69 1003.7
20260510003230 19 306 0.0 0.0 0.00 0.00 0.00 68 1003.4
20260510002729 20 304 0.0 0.0 0.00 0.00 0.00 68 1003.4
20260510002229 20 301 0.0 0.0 0.00 0.00 0.00 67 1003.4
20260510001730 20 300 0.0 0.0 0.00 0.00 0.00 67 1003.4
20260510001229 20 298 0.0 0.0 0.00 0.00 0.00 66 1003.4
20260510000729 20 303 0.0 0.0 0.00 0.00 0.00 66 1003.0
20260510000229 21 302 0.0 0.0 0.00 0.00 0.00 65 1003.0
20260509235730 21 303 0.0 0.0 0.00 0.00 0.00 64 1003.0
20260509235230 21 299 0.0 0.0 0.00 0.00 0.00 64 1003.0
20260509234730 21 304 0.0 0.0 0.00 0.00 0.00 63 1003.0
20260509234229 21 295 0.0 0.0 0.00 0.00 0.00 63 1003.0
20260509233729 21 301 0.0 0.0 0.00 0.00 0.00 62 1002.7
20260509233229 21 304 0.0 0.0 0.00 0.00 0.00 62 1002.7
20260509232730 22 311 0.0 0.0 0.00 0.00 0.00 61 1003.0
20260509232231 22 300 0.0 0.0 0.00 0.00 0.00 61 1003.0
20260509231730 22 328 0.0 0.0 0.00 0.00 0.00 60 1003.0
20260509231229 22 315 0.0 0.0 0.00 0.00 0.00 59 1003.0
20260509230729 22 295 0.0 0.0 0.00 0.00 0.00 58 1003.0
20260509230229 22 305 0.0 0.0 0.00 0.00 0.00 58 1003.0
20260509225731 23 311 0.0 0.0 0.00 0.00 0.00 58 1003.0
20260509225230 23 277 0.0 0.0 0.00 0.00 0.00 57 1002.7
20260509224729 23 293 0.0 0.0 0.00 0.00 0.00 56 1002.7
20260509224229 23 321 0.0 3.2 0.00 0.00 0.00 56 1002.7
20260509223729 23 311 0.0 0.0 0.00 0.00 0.00 56 1002.7
20260509223229 23 283 0.0 3.2 0.00 0.00 0.00 54 1002.7
20260509222729 23 335 0.0 1.6 0.00 0.00 0.00 55 1002.7
20260509222230 23 288 0.0 0.0 0.00 0.00 0.00 54 1002.7
20260509221729 23 320 0.0 4.8 0.00 0.00 0.00 53 1002.7
20260509221229 23 17 1.6 4.8 0.00 0.00 0.00 53 1002.7
20260509220731 23 322 0.0 1.6 0.00 0.00 0.00 54 1002.7
20260509220230 23 298 0.0 3.2 0.00 0.00 0.00 54 1002.7
20260509215729 24 331 0.0 4.8 0.00 0.00 0.00 53 1002.7
20260509215229 24 297 0.0 3.2 0.00 0.00 0.00 52 1002.7
20260509214729 24 325 0.0 3.2 0.00 0.00 0.00 52 1002.7
20260509214229 24 304 0.0 4.8 0.00 0.00 0.00 50 1002.7
20260509213729 25 286 0.0 1.6 0.00 0.00 0.00 51 1002.4
20260509213231 25 312 3.2 3.2 0.00 0.00 0.00 51 1002.7
20260509212730 25 330 0.0 3.2 0.00 0.00 0.00 52 1002.4
20260509212230 24 304 0.0 1.6 0.00 0.00 0.00 52 1002.4
20260509211729 24 304 0.0 1.6 0.00 0.00 0.00 53 1002.4
20260509211230 24 352 3.2 4.8 0.00 0.00 0.00 53 1002.4
20260509210731 23 321 0.0 6.4 0.00 0.00 0.00 52 1002.4
20260509210231 23 247 3.2 3.2 0.00 0.00 0.00 53 1002.4
20260509205731 23 359 3.2 3.2 0.00 0.00 0.00 53 1002.4
20260509205230 23 21 3.2 4.8 0.00 0.00 0.00 54 1002.4
20260509204732 23 259 0.0 4.8 0.00 0.00 0.00 54 1002.4
20260509204230 23 288 0.0 3.2 0.00 0.00 0.00 57 1002.4
20260509203730 23 298 1.6 1.6 0.00 0.00 0.00 55 1002.4
20260509203231 23 80 3.2 4.8 0.00 0.00 0.00 55 1002.4
20260509202730 23 283 0.0 3.2 0.00 0.00 0.00 55 1002.4
20260509202229 23 317 3.2 3.2 0.00 0.00 0.00 57 1002.4
20260509201730 23 338 3.2 4.8 0.00 0.00 0.00 56 1002.4
20260509201229 23 167 0.0 1.6 0.00 0.00 0.00 57 1002.7
20260509200732 23 311 0.0 0.0 0.00 0.00 0.00 59 1002.7
20260509200229 23 301 0.0 3.2 0.00 0.00 0.00 58 1002.7
20260509195730 23 313 0.0 3.2 0.00 0.00 0.00 58 1002.7
20260509195230 23 304 0.0 0.0 0.00 0.00 0.00 57 1003.0
20260509194731 23 61 0.0 1.6 0.00 0.00 0.00 56 1003.0
20260509194229 23 306 1.6 3.2 0.00 0.00 0.00 55 1003.0
20260509193730 23 318 0.0 4.8 0.00 0.00 0.00 53 1003.0
20260509193229 23 267 0.0 4.8 0.00 0.00 0.00 53 1003.0